Location: Frizzleburg
(41.0764°N, 80.4548°W)
Time: 14:33:35
(UTC+00:00)

Lacrosse 5 rocket - Pass Details

Date: 17 November 2019
Orbit: 460 x 638 km, 57.0° (Epoch: 04 December)

Event Time Altitude Azimuth Distance (km) Brightness Sun altitude
Exits shadow 11:33:35 - 330° (NNW) 2,172 3.9 -7.5°
Reaches altitude 10° 11:35:21 10° 345° (NNW) 1,614 3.4 -7.2°
Maximum altitude 11:37:51 18° 29° (NNE) 1,217 3.2 -6.7°
Drops below altitude 10° 11:40:20 10° 74° (ENE) 1,607 4.6 -6.3°
Sets 11:43:00 0° 94° (E) 2,488 6.5 -5.8°
